Location: Mt. Chestnut Observatory
(40.9038°N, 79.9956°W)
Time: 13:01:07
(UTC-04:00)

Daily predictions for brighter satellites

Satellite Brightness Start Highest point End
(mag) Time Altitude Azimuth Time Altitude Azimuth Time Altitude Azimuth
DELTA 2 R/B (1) 4.4 21:18:55 10° W 21:24:03 39° SSW 21:29:11 10° SE
Cosmos 1680 Rocket 3.6 21:22:03 10° NNW 21:27:20 88° ENE 21:32:37 10° SSE
Cosmos 1500 Rocket 4.3 21:23:50 10° SSW 21:28:08 57° W 21:32:31 10° N
Cosmos 1437 Rocket 3.4 21:24:51 10° NNW 21:28:38 56° W 21:32:26 10° S
Cosmos 2058 3.5 21:26:53 10° SSE 21:30:40 37° E 21:34:28 10° NNE
Cosmos 2151 2.9 21:27:18 10° S 21:31:27 67° E 21:35:39 10° NNE
Cosmos 923 Rocket 4.5 21:28:02 10° NNW 21:33:11 63° WSW 21:38:18 10° S
Cosmos 405 3.5 21:32:51 10° NNW 21:36:27 62° W 21:40:00 10° S
NOSS 3-1 (A) 3.5 21:31:13 10° SSW 21:36:52 54° ESE 21:43:07 10° NE
Cosmos 1898 Rocket 3.9 21:33:42 10° S 21:38:31 41° ESE 21:43:24 10° NNE
H-2A R/B 4.2 21:36:46 10° E 21:39:13 13° ENE 21:41:41 10° NNE
Cosmos 2237 4.3 21:35:49 10° NNW 21:41:35 74° ENE 21:47:16 10° SSE
Delta 2 Rocket 3.9 21:38:29 10° WSW 21:41:58 33° S 21:44:58 11° ESE
Cosmos 1437 3.1 21:40:49 10° SSW 21:44:05 69° W 21:47:22 10° N
Nadezhda 2 Rocket 4.5 21:38:12 10° S 21:44:16 69° E 21:50:20 10° NNE
ALOS 4.1 21:40:53 10° SSW 21:44:58 30° W 21:49:05 10° NW
Aureole 3 4.2 21:40:21 10° S 21:46:43 78° E 21:51:42 10° N
Cosmos 1939 Rocket 2.8 21:43:39 10° SSE 21:47:34 90° SE 21:51:28 10° NNW
Tiangong 1 1.0 21:45:32 10° WSW 21:48:39 87° NNW 21:51:45 10° ENE
Cosmos 2219 3.4 21:42:58 10° SSW 21:48:43 82° WNW 21:54:30 10° NNE
Nimbus 7 Rocket 4.4 21:43:47 10° NNE 21:49:39 70° ESE 21:55:29 10° S
SPOT 1/Viking Rocket 4.4 21:46:53 11° SE 21:51:21 35° ENE 21:56:00 10° N
Cosmos 2237 Rocket 3.4 21:46:50 10° N 21:51:47 29° NE 21:56:27 11° ESE
OAO 2 Rocket 3.9 21:48:54 10° WSW 21:53:50 40° S 21:58:49 10° ESE
Cosmos 2150 Rocket 4.1 21:49:16 10° S 21:54:36 61° ESE 22:00:01 10° NNE
Cosmos 2333 4.3 21:51:26 10° NNW 21:57:11 73° ENE 22:02:25 13° SSE
CZ-4 SHROUD 3.3 21:55:57 13° SSE 21:58:35 57° ENE 22:01:40 10° N
deb Chang Zheng 4 3.9 21:54:32 10° N 21:58:52 69° WNW 22:03:10 10° SSW
ATLAS 2AS CENTAUR R/B 3.5 21:52:38 10° S 21:59:10 35° ESE 22:06:10 10° NE
Sich 1 3.3 21:55:13 10° SSE 21:59:27 49° E 22:03:42 10° NNE
Cosmos 2360 Rocket 3.4 21:55:30 10° NW 22:00:43 39° WSW 22:05:56 10° S
Cosmos 1151 Rocket 4.3 21:57:23 10° NNW 22:01:26 40° W 22:05:29 10° SSW
Cosmos 1271 Rocket 3.5 21:59:18 10° N 22:02:55 37° ENE 22:05:32 17° SE
Cosmos 1626 4.0 22:02:07 14° ESE 22:03:23 16° E 22:05:43 10° NE
Cosmos 1328 4.4 21:59:36 10° SSW 22:03:30 57° W 22:07:24 10° N
ERS-1 Rocket 4.0 22:01:53 10° S 22:06:39 43° W 22:11:28 10° NNW
Cosmos 1633 Rocket 3.1 22:02:59 10° S 22:07:15 57° E 22:11:33 10° NNE
ATLAS 3B R/B 4.0 22:01:16 10° NNW 22:07:26 31° NE 22:13:15 10° E
YAOGAN 6 2.9 22:04:58 16° SE 22:07:36 50° ENE 22:11:06 10° N
ERBS 2.3 22:05:05 10° SSW 22:08:32 59° SE 22:11:59 10° NE
Cosmos 2242 Rocket 3.8 22:09:25 10° N 22:13:51 56° E 22:17:07 18° SSE
Envisat 3.4 22:09:00 10° S 22:14:00 62° WSW 22:19:04 10° NNW
CZ-4 R/B 4.4 22:10:54 10° NNE 22:15:29 39° E 22:18:51 16° SSE
Cosmos 1703 3.5 22:14:44 16° SSE 22:17:34 48° E 22:21:20 10° NNE
SL-14 R/B 3.3 22:15:09 10° S 22:19:06 83° W 22:23:09 10° N
USA 245 2.4 22:21:00 35° ESE 22:21:36 45° ENE 22:23:47 10° N
NOSS 3-1 (C) 4.1 22:16:03 10° SW 22:21:51 59° NW 22:28:20 10° NNE
Meteor 1-27 4.4 22:17:52 10° NNW 22:23:33 74° W 22:28:49 11° S
Cosmos 1805 Rocket 4.4 22:20:42 10° SSW 22:25:02 52° W 22:29:23 10° N
PSLV R/B 3.9 22:23:16 16° S 22:25:33 49° W 22:28:30 10° NNW
USA 32 4.0 22:23:28 10° N 22:28:44 69° E 22:32:31 19° SSE
Cosmos 220 Rocket 4.0 22:24:29 10° SSW 22:28:52 89° ESE 22:33:20 10° NNE
Cosmos 2227 Rocket 2.2 22:24:35 10° S 22:30:07 59° ESE 22:35:41 10° NNE
Cosmos 1300 3.7 22:28:45 10° NNW 22:32:24 43° W 22:35:46 12° SSW
Cosmos 1937 Rocket 3.5 22:27:15 10° SSW 22:32:29 88° WNW 22:37:43 10° NNE
MetOp-A 4.4 22:30:22 13° S 22:35:03 65° WSW 22:40:23 10° NNW
Cosmos 990 Rocket 3.9 22:33:15 10° SSW 22:38:22 75° ESE 22:43:31 10° NNE
H-2A R/B 4.2 22:37:58 10° SSW 22:41:37 24° W 22:45:16 10° NW
Cosmos 292 Rocket 4.1 22:38:16 10° NNW 22:42:58 61° WSW 22:46:01 21° S
DELTA 2 DEB (DPAF) 4.4 22:41:00 27° SE 22:43:11 55° ENE 22:47:35 10° N
SPOT 5 4.0 22:40:03 11° SSW 22:44:15 39° W 22:48:50 10° NNW
SL-16 R/B 3.1 22:42:24 10° N 22:47:38 36° ENE 22:50:40 21° ESE
ARGOS 3.2 22:44:45 22° SSE 22:48:20 85° WSW 22:53:45 10° NNW
CZ-4B R/B 3.8 22:43:40 10° N 22:48:55 72° WNW 22:54:02 10° SSW
H-2A R/B 4.5 22:44:38 10° SW 22:49:30 35° SSE 23:13:04 10° E
H-2A R/B 4.5 22:44:38 10° SW 22:49:30 35° SSE 23:13:05 10° E
Cosmos 2333 Rocket 2.2 22:46:40 10° NNW 22:52:27 83° WSW 22:55:43 27° SSE
Cosmos 1455 2.1 22:50:47 10° N 22:54:36 71° E 22:55:49 41° SSE
OTV 4 1.5 22:52:49 10° WSW 22:54:46 32° SW 22:54:46 32° SW
Cosmos 1726 3.9 22:53:09 10° NNW 22:56:26 28° W 22:59:13 13° SW
Cosmos 2297 Rocket 2.1 22:51:53 15° S 22:56:33 68° ESE 23:02:11 10° NNE
Cosmos 1346 3.2 22:57:45 42° SSW 22:58:35 70° W 23:01:37 10° N
Cosmos 2219 Rocket 2.6 22:54:22 10° NNW 22:59:50 54° WSW 23:03:07 24° S
Landsat 7 3.8 22:57:59 32° SSE 23:00:10 79° ENE 23:04:56 10° N
NOSS 2-3 (C) 4.5 23:00:19 33° SE 23:01:07 35° ESE 23:06:01 10° NE
Cosmos 1470 Rocket 3.7 22:59:12 22° SSW 23:01:54 72° W 23:06:14 10° N
Cosmos 1933 Rocket 3.7 23:00:00 22° SSW 23:02:48 75° W 23:07:17 10° N
COSMOS 2428 4.5 22:59:26 10° NW 23:03:56 25° WSW 23:08:24 10° SSW
Meteor 1-4 Rocket 4.2 23:01:40 10° NNW 23:04:56 29° W 23:06:57 18° SW
Cosmos 44 Rocket 4.0 23:04:46 34° SE 23:05:30 36° ESE 23:10:15 10° NE
NOSS 0 Rocket 4.3 23:00:04 10° NNW 23:06:05 58° WSW 23:09:36 25° S
SL-08 RB Rocket 4.0 23:05:02 29° S 23:07:12 61° W 23:11:41 10° NNW
Cosmos 1703 Rocket 4.3 23:03:19 10° N 23:07:23 36° ENE 23:08:18 33° ESE
Lacrosse 4 Rocket 2.1 23:03:10 10° NNW 23:07:28 47° ENE 23:08:55 34° ESE
Nadezhda 1 Rocket 4.0 23:02:28 10° N 23:08:35 78° W 23:12:17 26° S
Cosmos 1269 Rocket 4.2 23:05:14 10° NNW 23:10:30 60° ENE 23:12:32 36° SE
Cosmos 1933 3.8 23:09:10 10° N 23:13:05 44° E 23:13:41 41° ESE
Terra 1.7 23:14:22 41° SSE 23:16:02 79° ENE 23:20:48 10° N
H-2A R/B 2.1 23:15:25 35° SSE 23:17:48 89° WSW 23:23:17 10° NNW
COSMOS 2455 2.9 23:13:13 10° NNW 23:19:16 75° ENE 23:21:50 36° SE
NOSS 2-3 (D) 4.1 23:21:10 43° SSE 23:22:16 51° ESE 23:27:34 10° NE
Cosmos 1980 4.3 23:18:53 10° NW 23:24:16 47° WSW 23:26:49 28° SSW
Tiangong 1 1.5 23:22:17 10° WNW 23:25:22 58° N 23:25:23 58° N
Cosmos 1125 Rocket 3.4 23:23:43 31° SSW 23:26:23 85° ESE 23:31:43 10° NNE
Cosmos 1048 Rocket 4.1 23:21:20 10° NNW 23:26:42 68° ENE 23:28:25 42° SE
Cosmos 1709 Rocket 3.9 23:27:42 33° S 23:30:37 83° E 23:36:45 10° N
Cosmos 2221 Rocket 3.7 23:26:13 10° N 23:30:45 63° E 23:31:33 53° SE
Spot 4 3.8 23:29:25 48° SSE 23:30:48 86° ENE 23:35:41 10° NNW
Cosmos 2237 Rocket 3.0 23:30:38 10° NW 23:35:57 42° WSW 23:38:17 28° SSW
Cosmos 372 Rocket 4.0 23:36:14 48° SSE 23:37:25 62° ESE 23:42:35 10° NNE
Cosmos 1900 4.3 23:32:36 10° NW 23:37:33 70° WSW 23:38:38 52° S
Cosmos 1869 4.3 23:34:25 10° NNW 23:38:14 41° W 23:39:14 34° SW
OAO 2 Rocket 3.8 23:33:16 10° WSW 23:38:02 42° SSW 23:38:02 42° SSW
Cosmos 1626 3.8 23:36:48 20° WSW 23:38:32 30° WNW 23:41:52 10° NNW
Cosmos 389 Rocket 3.3 23:35:10 10° N 23:38:11 40° ENE 23:38:11 40° ENE
CARTOSAT-1 4.2 23:42:07 40° SW 23:43:06 48° W 23:47:17 10° NNW
Meteor 1-26 Rocket 4.3 23:39:16 10° N 23:44:54 66° E 23:46:26 47° SE
ATLAS 2AS CENTAUR R/B 3.6 23:42:26 10° SW 23:49:51 57° NW 23:57:49 10° NNE
IGS 5A 4.2 23:50:56 40° SW 23:51:35 43° W 23:55:35 10° NNW
H-2A R/B 4.5 23:49:38 10° NE 23:51:48 18° ENE 23:51:48 18° ENE
Cosmos 44 4.0 23:55:07 42° ESE 23:55:07 42° ESE 23:59:58 10° NE
